,,PA_Meas_PMT16A,,PR_Meas_QMR101_102,,RH_Meas_QMH101,,SR_Meas_QMS101,,TA_Meas_QMH101,,GenWind,,GenWind,
time,status,PA,status,PR,status,RH,status,SR,status,TA,status,DirAvg,status,SpdAvg,
2013-08-07, 00:00:04,VALID,918.78,VALID,0,VALID,95.6815,VALID,0.107441,VALID,18.9424,VALID,1,VALID,0,
2013-08-07, 00:01:04,VALID,918.762,VALID,0,VALID,95.5214,VALID,0,VALID,18.8839,VALID,1,VALID,0,
2013-08-07, 00:02:04,VALID,918.756,VALID,0,VALID,95.2775,VALID,0,VALID,18.8254,VALID,1,VALID,0,
2013-08-07, 00:03:04,VALID,918.718,VALID,0,VALID,95.1631,VALID,0,VALID,18.8059,VALID,1,VALID,0,
2013-08-07, 00:04:04,VALID,918.737,VALID,0,VALID,95.2012,VALID,0.107441,VALID,18.8059,VALID,24,VALID,0,
2013-08-07, 00:05:04,VALID,918.712,VALID,0,VALID,95.1097,VALID,0,VALID,18.8059,VALID,23,VALID,0,
2013-08-07, 00:06:04,VALID,918.717,VALID,0,VALID,94.9496,VALID,0.107441,VALID,18.8434,VALID,24,VALID,0,
2013-08-07, 00:07:04,VALID,918.723,VALID,0,VALID,94.7362,VALID,0.107441,VALID,18.9034,VALID,18,VALID,0,
2013-08-07, 00:08:04,VALID,918.781,VALID,0,VALID,94.8277,VALID,0,VALID,18.9424,VALID,15,VALID,0,
2013-08-07, 00:09:04,VALID,918.729,VALID,0,VALID,95.0411,VALID,0,VALID,19.1178,VALID,6,VALID,0,
2013-08-07, 00:10:04,VALID,918.727,VALID,0,VALID,94.8963,VALID,0.107441,VALID,19.2153,VALID,2,VALID,0,
2013-08-07, 00:11:04,VALID,918.7,VALID,0,VALID,94.8124,VALID,0,VALID,19.2543,VALID,5,VALID,0,
2013-08-07, 00:12:04,VALID,918.724,VALID,0,VALID,94.7514,VALID,0.107441,VALID,19.3323,VALID,1,VALID,0,
2013-08-07, 00:13:04,VALID,918.702,VALID,0,VALID,94.5532,VALID,0,VALID,19.3128,VALID,2,VALID,0,
2013-08-07, 00:14:04,VALID,918.693,VALID,0,VALID,94.5227,VALID,0.107441,VALID,19.3323,VALID,6,VALID,0,
2013-08-07, 00:15:04,VALID,918.686,VALID,0,VALID,94.4465,VALID,0,VALID,19.3518,VALID,15,VALID,0,
2013-08-07, 00:16:04,VALID,918.699,VALID,0,VALID,94.4465,VALID,0,VALID,19.3713,VALID,15,VALID,0,
2013-08-07, 00:17:04,VALID,918.707,VALID,0,VALID,94.4922,VALID,0,VALID,19.3908,VALID,267,VALID,0,
2013-08-07, 00:18:04,VALID,918.699,VALID,0,VALID,94.4236,VALID,0,VALID,19.3908,VALID,267,VALID,0,
2013-08-07, 00:19:04,VALID,918.683,VALID,0,VALID,94.4541,VALID,0,VALID,19.4103,VALID,267,VALID,0,
2013-08-07, 00:20:04,VALID,918.659,VALID,0,VALID,94.5151,VALID,0,VALID,19.4103,VALID,267,VALID,0,
2013-08-07, 00:21:04,VALID,918.67,VALID,0,VALID,94.6142,VALID,0,VALID,19.4103,VALID,267,VALID,0,
2013-08-07, 00:22:04,VALID,918.656,VALID,0,VALID,94.6752,VALID,0,VALID,19.4103,VALID,267,VALID,0,
2013-08-07, 00:23:04,VALID,918.644,VALID,0,VALID,94.7133,VALID,0,VALID,19.3893,VALID,267,VALID,0,
2013-08-07, 00:24:04,VALID,918.664,VALID,0,VALID,94.7209,VALID,0.107441,VALID,19.3893,VALID,267,VALID,0,
2013-08-07, 00:25:04,VALID,918.677,VALID,0,VALID,94.6447,VALID,0,VALID,19.3713,VALID,267,VALID,0,
2013-08-07, 00:26:04,VALID,918.661,VALID,0,VALID,94.66,VALID,0,VALID,19.3518,VALID,267,VALID,0,
2013-08-07, 00:27:04,VALID,918.708,VALID,0,VALID,94.7286,VALID,0,VALID,19.3323,VALID,317,VALID,0,
2013-08-07, 00:28:04,VALID,918.687,VALID,0,VALID,94.7438,VALID,0,VALID,19.3323,VALID,345,VALID,0,
2013-08-07, 00:29:04,VALID,918.697,VALID,0,VALID,94.8505,VALID,0,VALID,19.3143,VALID,345,VALID,0,
2013-08-07, 00:30:04,VALID,918.651,VALID,0,VALID,94.8353,VALID,0.107441,VALID,19.2933,VALID,345,VALID,0,
2013-08-07, 00:31:04,VALID,918.642,VALID,0,VALID,94.7972,VALID,0.107441,VALID,19.3128,VALID,345,VALID,0,
2013-08-07, 00:32:04,VALID,918.625,VALID,0,VALID,94.6828,VALID,0,VALID,19.3128,VALID,345,VALID,0,
2013-08-07, 00:33:04,VALID,918.588,VALID,0,VALID,94.6981,VALID,0.107441,VALID,19.2933,VALID,343,VALID,0,
2013-08-07, 00:34:04,VALID,918.592,VALID,0,VALID,94.6371,VALID,0,VALID,19.3128,VALID,343,VALID,0,
2013-08-07, 00:35:04,VALID,918.552,VALID,0,VALID,94.5761,VALID,0,VALID,19.3323,VALID,351,VALID,0,
2013-08-07, 00:36:04,VALID,918.532,VALID,0,VALID,94.3245,VALID,0.107441,VALID,19.3518,VALID,351,VALID,0,
2013-08-07, 00:37:04,VALID,918.563,VALID,0,VALID,94.3093,VALID,0.107441,VALID,19.3713,VALID,344,VALID,0,
2013-08-07, 00:38:04,VALID,918.54,VALID,0,VALID,94.2483,VALID,0,VALID,19.4103,VALID,334,VALID,0,
2013-08-07, 00:39:04,VALID,918.532,VALID,0,VALID,94.1187,VALID,0,VALID,19.4298,VALID,338,VALID,0,
2013-08-07, 00:40:04,VALID,918.496,VALID,0,VALID,93.9586,VALID,0,VALID,19.4493,VALID,338,VALID,0,
2013-08-07, 00:41:04,VALID,918.481,VALID,0,VALID,93.7528,VALID,0.107441,VALID,19.4493,VALID,330,VALID,0,
2013-08-07, 00:42:04,VALID,918.466,VALID,0,VALID,93.6613,VALID,0,VALID,19.4493,VALID,2,VALID,0,
2013-08-07, 00:43:04,VALID,918.466,VALID,0,VALID,93.4478,VALID,0,VALID,19.4883,VALID,359,VALID,0,
2013-08-07, 00:44:04,VALID,918.512,VALID,0,VALID,93.181,VALID,0,VALID,19.4868,VALID,359,VALID,0,
2013-08-07, 00:45:04,VALID,918.472,VALID,0,VALID,92.8837,VALID,0,VALID,19.4883,VALID,359,VALID,0,
2013-08-07, 00:46:04,VALID,918.472,VALID,0,VALID,92.7846,VALID,0,VALID,19.4688,VALID,359,VALID,0,
2013-08-07, 00:47:04,VALID,918.489,VALID,0,VALID,92.777,VALID,0,VALID,19.4688,VALID,357,VALID,0,
2013-08-07, 00:48:04,VALID,918.456,VALID,0,VALID,92.6626,VALID,0,VALID,19.4688,VALID,358,VALID,0,
2013-08-07, 00:49:04,VALID,918.453,VALID,0,VALID,92.6321,VALID,0,VALID,19.4703,VALID,358,VALID,0,
2013-08-07, 00:50:04,VALID,918.435,VALID,0,VALID,92.6931,VALID,0,VALID,19.4688,VALID,357,VALID,0,
2013-08-07, 00:51:04,VALID,918.377,VALID,0,VALID,92.6474,VALID,0,VALID,19.4688,VALID,358,VALID,0,
2013-08-07, 00:52:04,VALID,918.365,VALID,0,VALID,92.7236,VALID,0,VALID,19.4703,VALID,357,VALID,0,
2013-08-07, 00:53:04,VALID,918.304,VALID,0,VALID,92.8151,VALID,0,VALID,19.4493,VALID,358,VALID,0,
2013-08-07, 00:54:04,VALID,918.295,VALID,0,VALID,92.8456,VALID,0,VALID,19.4298,VALID,2,VALID,0,
2013-08-07, 00:55:04,VALID,918.271,VALID,0,VALID,93.0362,VALID,0,VALID,19.4298,VALID,2,VALID,0,
2013-08-07, 00:56:04,VALID,918.237,VALID,0,VALID,93.12,VALID,0,VALID,19.4103,VALID,2,VALID,0,
2013-08-07, 00:57:04,VALID,918.224,VALID,0,VALID,93.1963,VALID,0,VALID,19.4103,VALID,2,VALID,0,
2013-08-07, 00:58:04,VALID,918.243,VALID,0,VALID,93.3106,VALID,0,VALID,19.4103,VALID,2,VALID,0,
2013-08-07, 00:59:04,VALID,918.236,VALID,0,VALID,93.364,VALID,0,VALID,19.4103,VALID,358,VALID,0,
2013-08-07, 01:00:04,VALID,918.194,VALID,0,VALID,93.2954,VALID,0,VALID,19.3893,VALID,3,VALID,0,
2013-08-07, 01:01:04,VALID,918.186,VALID,0,VALID,93.3259,VALID,0,VALID,19.4103,VALID,7,VALID,0,
2013-08-07, 01:02:04,VALID,918.163,VALID,0,VALID,93.2877,VALID,0,VALID,19.3908,VALID,6,VALID,0,
2013-08-07, 01:03:04,VALID,918.174,VALID,0,VALID,93.3335,VALID,0.107441,VALID,19.4118,VALID,359,VALID,0,
2013-08-07, 01:04:04,VALID,918.166,VALID,0,VALID,93.303,VALID,0,VALID,19.3713,VALID,6,VALID,0,
2013-08-07, 01:05:04,VALID,918.134,VALID,0,VALID,93.2115,VALID,0,VALID,19.3518,VALID,25,VALID,0,
2013-08-07, 01:06:04,VALID,918.139,VALID,0,VALID,93.2268,VALID,0,VALID,19.3518,VALID,25,VALID,0,
2013-08-07, 01:07:04,VALID,918.161,VALID,0,VALID,93.2725,VALID,0,VALID,19.3128,VALID,25,VALID,0,
2013-08-07, 01:08:04,VALID,918.196,VALID,0,VALID,93.4783,VALID,0,VALID,19.3128,VALID,8,VALID,0,
2013-08-07, 01:09:04,VALID,918.172,VALID,0,VALID,93.5851,VALID,0,VALID,19.3518,VALID,8,VALID,0,
2013-08-07, 01:10:04,VALID,918.159,VALID,0,VALID,93.4021,VALID,0,VALID,19.3128,VALID,28,VALID,0,
2013-08-07, 01:11:04,VALID,918.192,VALID,0,VALID,93.5851,VALID,0.107441,VALID,19.2933,VALID,35,VALID,0,
2013-08-07, 01:12:04,VALID,918.192,VALID,0,VALID,93.7223,VALID,0.107441,VALID,19.2933,VALID,35,VALID,0,
2013-08-07, 01:13:04,VALID,918.16,VALID,0,VALID,93.768,VALID,0,VALID,19.3323,VALID,35,VALID,0,
2013-08-07, 01:14:04,VALID,918.165,VALID,0,VALID,93.4859,VALID,0,VALID,19.2933,VALID,35,VALID,0,
2013-08-07, 01:15:04,VALID,918.131,VALID,0,VALID,93.2649,VALID,0,VALID,19.2348,VALID,35,VALID,0,
2013-08-07, 01:16:04,VALID,918.087,VALID,0,VALID,93.1124,VALID,0,VALID,19.1763,VALID,35,VALID,0,
2013-08-07, 01:17:04,VALID,918.082,VALID,0,VALID,93.0438,VALID,0,VALID,19.1178,VALID,35,VALID,0,
2013-08-07, 01:18:04,VALID,918.034,VALID,0,VALID,93.12,VALID,0.107441,VALID,19.0983,VALID,35,VALID,0,
2013-08-07, 01:19:04,VALID,917.989,VALID,0,VALID,93.4097,VALID,0,VALID,19.0788,VALID,35,VALID,0,
2013-08-07, 01:20:04,VALID,917.977,VALID,0,VALID,93.6689,VALID,0,VALID,19.0983,VALID,35,VALID,0,
2013-08-07, 01:21:04,VALID,917.956,VALID,0,VALID,93.9052,VALID,0,VALID,19.1178,VALID,35,VALID,0,
2013-08-07, 01:22:04,VALID,917.959,VALID,0,VALID,93.9434,VALID,0,VALID,19.0983,VALID,35,VALID,0,
2013-08-07, 01:23:04,VALID,917.976,VALID,0,VALID,93.8976,VALID,0,VALID,19.0593,VALID,35,VALID,0,
2013-08-07, 01:24:04,VALID,917.966,VALID,0,VALID,93.8671,VALID,0,VALID,19.0398,VALID,35,VALID,0,
2013-08-07, 01:25:04,VALID,917.993,VALID,0,VALID,93.7985,VALID,0,VALID,19.0203,VALID,35,VALID,0,
2013-08-07, 01:26:04,VALID,917.97,VALID,0,VALID,93.9815,VALID,0,VALID,19.0008,VALID,35,VALID,0,
2013-08-07, 01:27:04,VALID,917.929,VALID,0,VALID,94.1034,VALID,0,VALID,19.0008,VALID,35,VALID,0,
2013-08-07, 01:28:04,VALID,917.893,VALID,0,VALID,94.1339,VALID,0,VALID,18.9619,VALID,35,VALID,0,
2013-08-07, 01:29:04,VALID,917.908,VALID,0,VALID,94.1873,VALID,0,VALID,18.9619,VALID,35,VALID,0,
2013-08-07, 01:30:04,VALID,917.881,VALID,0,VALID,93.9434,VALID,0,VALID,18.9633,VALID,35,VALID,0,
2013-08-07, 01:31:04,VALID,917.837,VALID,0,VALID,93.8824,VALID,0,VALID,18.9424,VALID,35,VALID,0,
2013-08-07, 01:32:04,VALID,917.847,VALID,0,VALID,93.9281,VALID,0,VALID,18.8839,VALID,35,VALID,0,
2013-08-07, 01:33:04,VALID,917.811,VALID,0,VALID,94.0806,VALID,0,VALID,18.8839,VALID,35,VALID,0,
2013-08-07, 01:34:04,VALID,917.814,VALID,0,VALID,93.8519,VALID,0,VALID,18.8254,VALID,35,VALID,0,
2013-08-07, 01:35:04,VALID,917.845,VALID,0,VALID,93.6994,VALID,0,VALID,18.7474,VALID,35,VALID,0,
2013-08-07, 01:36:04,VALID,917.809,VALID,0,VALID,93.8138,VALID,0,VALID,18.7084,VALID,35,VALID,0,
2013-08-07, 01:37:04,VALID,917.776,VALID,0,VALID,93.8443,VALID,0,VALID,18.6889,VALID,35,VALID,0,
2013-08-07, 01:38:04,VALID,917.776,VALID,0,VALID,93.9815,VALID,0,VALID,18.6304,VALID,35,VALID,0,
2013-08-07, 01:39:04,VALID,917.78,VALID,0,VALID,94.4694,VALID,0,VALID,18.6889,VALID,35,VALID,0,
2013-08-07, 01:40:04,VALID,917.734,VALID,0,VALID,94.416,VALID,0.107441,VALID,18.6694,VALID,35,VALID,0,
2013-08-07, 01:41:04,VALID,917.711,VALID,0,VALID,94.4313,VALID,0,VALID,18.6694,VALID,35,VALID,0,
2013-08-07, 01:42:04,VALID,917.674,VALID,0,VALID,94.5075,VALID,0,VALID,18.6694,VALID,35,VALID,0,
2013-08-07, 01:43:04,VALID,917.655,VALID,0,VALID,94.7591,VALID,0,VALID,18.6889,VALID,9,VALID,0,
2013-08-07, 01:44:04,VALID,917.635,VALID,0,VALID,94.8124,VALID,0,VALID,18.7084,VALID,11,VALID,0,
2013-08-07, 01:45:04,VALID,917.574,VALID,0,VALID,94.9192,VALID,0,VALID,18.7474,VALID,10,VALID,0,
2013-08-07, 01:46:04,VALID,917.578,VALID,0,VALID,95.064,VALID,0.107441,VALID,18.8073,VALID,10,VALID,0,
2013-08-07, 01:47:04,VALID,917.554,VALID,0,VALID,95.0183,VALID,0,VALID,18.785,VALID,10,VALID,0,
2013-08-07, 01:48:04,VALID,917.553,VALID,0,VALID,94.9954,VALID,0,VALID,18.8254,VALID,10,VALID,0,
2013-08-07, 01:49:04,VALID,917.539,VALID,0,VALID,94.82,VALID,0,VALID,18.8059,VALID,10,VALID,0,
2013-08-07, 01:50:04,VALID,917.519,VALID,0,VALID,94.8582,VALID,0,VALID,18.8059,VALID,10,VALID,0,
2013-08-07, 01:51:04,VALID,917.535,VALID,0,VALID,94.9115,VALID,0,VALID,18.7864,VALID,10,VALID,0,
2013-08-07, 01:52:04,VALID,917.542,VALID,0,VALID,94.9573,VALID,0,VALID,18.8059,VALID,10,VALID,0,
2013-08-07, 01:53:04,VALID,917.518,VALID,0,VALID,94.9878,VALID,0,VALID,18.8254,VALID,10,VALID,0,
2013-08-07, 01:54:04,VALID,917.504,VALID,0,VALID,94.9573,VALID,0,VALID,18.8463,VALID,26,VALID,0,
2013-08-07, 01:55:04,VALID,917.494,VALID,0,VALID,94.9039,VALID,0,VALID,18.9048,VALID,22,VALID,0,
2013-08-07, 01:56:04,VALID,917.433,VALID,0,VALID,94.6905,VALID,0,VALID,18.9243,VALID,8,VALID,0,
2013-08-07, 01:57:04,VALID,917.419,VALID,0,VALID,94.5913,VALID,0,VALID,18.9828,VALID,1,VALID,0,
2013-08-07, 01:58:04,VALID,917.411,VALID,0,VALID,94.3474,VALID,0,VALID,19.0203,VALID,2,VALID,0,
2013-08-07, 01:59:04,VALID,917.377,VALID,0,VALID,94.1263,VALID,0,VALID,19.0788,VALID,360,VALID,0,
2013-08-07, 02:00:04,VALID,917.367,VALID,0,VALID,93.8976,VALID,0,VALID,19.0983,VALID,356,VALID,0,
2013-08-07, 02:01:04,VALID,917.338,VALID,0,VALID,93.707,VALID,0,VALID,19.1373,VALID,344,VALID,0,
2013-08-07, 02:02:04,VALID,917.326,VALID,0,VALID,93.4326,VALID,0,VALID,19.1568,VALID,339,VALID,0,
2013-08-07, 02:03:04,VALID,917.305,VALID,0,VALID,93.3182,VALID,0,VALID,19.1373,VALID,1,VALID,0,
2013-08-07, 02:04:04,VALID,917.301,VALID,0,VALID,93.1886,VALID,0.107441,VALID,19.1178,VALID,7,VALID,0,
2013-08-07, 02:05:04,VALID,917.286,VALID,0,VALID,93.4021,VALID,0,VALID,19.1583,VALID,3,VALID,0,
2013-08-07, 02:06:04,VALID,917.248,VALID,0,VALID,93.1658,VALID,0,VALID,19.0983,VALID,5,VALID,0,
2013-08-07, 02:07:04,VALID,917.255,VALID,0,VALID,93.2877,VALID,0,VALID,19.0593,VALID,28,VALID,0,
2013-08-07, 02:08:04,VALID,917.281,VALID,0,VALID,93.303,VALID,0,VALID,19.0398,VALID,7,VALID,0,
2013-08-07, 02:09:04,VALID,917.255,VALID,0,VALID,93.364,VALID,0,VALID,19.0413,VALID,3,VALID,0,
2013-08-07, 02:10:04,VALID,917.268,VALID,0,VALID,93.3259,VALID,0,VALID,19.0203,VALID,24,VALID,0,
2013-08-07, 02:11:04,VALID,917.263,VALID,0,VALID,93.0743,VALID,0,VALID,19.0008,VALID,11,VALID,0,
2013-08-07, 02:12:04,VALID,917.275,VALID,0,VALID,93.1429,VALID,0,VALID,19.0413,VALID,11,VALID,0,
2013-08-07, 02:13:04,VALID,917.239,VALID,0,VALID,93.2268,VALID,0,VALID,19.0593,VALID,4,VALID,0,
2013-08-07, 02:14:04,VALID,917.26,VALID,0,VALID,93.1048,VALID,0,VALID,19.0788,VALID,4,VALID,0,
2013-08-07, 02:15:04,VALID,917.221,VALID,0,VALID,93.12,VALID,0,VALID,19.0983,VALID,5,VALID,0,
2013-08-07, 02:16:04,VALID,917.238,VALID,0,VALID,92.8761,VALID,0,VALID,19.1388,VALID,352,VALID,0,
2013-08-07, 02:17:04,VALID,917.256,VALID,0,VALID,92.8913,VALID,0,VALID,19.1373,VALID,316,VALID,0,
2013-08-07, 02:18:04,VALID,917.222,VALID,0,VALID,92.7693,VALID,0,VALID,19.1568,VALID,317,VALID,0,
2013-08-07, 02:19:04,VALID,917.209,VALID,0,VALID,92.1595,VALID,0,VALID,19.1583,VALID,317,VALID,0,
2013-08-07, 02:20:04,VALID,917.198,VALID,0,VALID,92.533,VALID,0.107441,VALID,19.1568,VALID,344,VALID,0,
2013-08-07, 02:21:04,VALID,917.148,VALID,0,VALID,92.4797,VALID,0,VALID,19.1373,VALID,350,VALID,0,
2013-08-07, 02:22:04,VALID,917.137,VALID,0,VALID,92.5788,VALID,0,VALID,19.1373,VALID,357,VALID,0,
2013-08-07, 02:23:04,VALID,917.162,VALID,0,VALID,92.6016,VALID,0,VALID,19.1388,VALID,8,VALID,0,
2013-08-07, 02:24:04,VALID,917.186,VALID,0,VALID,92.5102,VALID,0,VALID,19.0983,VALID,356,VALID,0,
2013-08-07, 02:25:04,VALID,917.182,VALID,0,VALID,92.6855,VALID,0,VALID,19.1193,VALID,345,VALID,0,
2013-08-07, 02:26:04,VALID,917.178,VALID,0,VALID,92.655,VALID,0,VALID,19.0788,VALID,334,VALID,0,
2013-08-07, 02:27:04,VALID,917.21,VALID,0,VALID,92.4568,VALID,0,VALID,19.1178,VALID,349,VALID,0,
2013-08-07, 02:28:04,VALID,917.21,VALID,0,VALID,92.4034,VALID,0,VALID,19.1178,VALID,20,VALID,0,
2013-08-07, 02:29:04,VALID,917.193,VALID,0,VALID,92.2662,VALID,0,VALID,19.1568,VALID,2,VALID,0,
2013-08-07, 02:30:04,VALID,917.186,VALID,0,VALID,91.946,VALID,0,VALID,19.1568,VALID,2,VALID,0,
2013-08-07, 02:31:04,VALID,917.179,VALID,0,VALID,91.9918,VALID,0,VALID,19.1568,VALID,2,VALID,0,
2013-08-07, 02:32:04,VALID,917.18,VALID,0,VALID,91.946,VALID,0,VALID,19.2168,VALID,2,VALID,0,
2013-08-07, 02:33:04,VALID,917.153,VALID,0,VALID,91.7021,VALID,0,VALID,19.1973,VALID,2,VALID,0,
2013-08-07, 02:34:04,VALID,917.145,VALID,0,VALID,91.8164,VALID,0,VALID,19.1778,VALID,2,VALID,0,
2013-08-07, 02:35:04,VALID,917.149,VALID,0,VALID,91.8545,VALID,0,VALID,19.1373,VALID,2,VALID,0,
2013-08-07, 02:36:04,VALID,917.134,VALID,0,VALID,91.9308,VALID,0.107441,VALID,19.1178,VALID,2,VALID,0,
2013-08-07, 02:37:04,VALID,917.114,VALID,0,VALID,92.2433,VALID,0,VALID,19.1373,VALID,2,VALID,0,
2013-08-07, 02:38:04,VALID,917.111,VALID,0,VALID,92.3119,VALID,0,VALID,19.1973,VALID,2,VALID,0,
2013-08-07, 02:39:04,VALID,917.08,VALID,0,VALID,91.9079,VALID,0,VALID,19.1973,VALID,24,VALID,0,
2013-08-07, 02:40:04,VALID,917.075,VALID,0,VALID,91.7402,VALID,0,VALID,19.2168,VALID,5,VALID,0,
2013-08-07, 02:41:04,VALID,917.056,VALID,0,VALID,91.7631,VALID,0,VALID,19.2363,VALID,7,VALID,0,
2013-08-07, 02:42:04,VALID,917.074,VALID,0,VALID,91.4657,VALID,0,VALID,19.2153,VALID,9,VALID,0,
2013-08-07, 02:43:04,VALID,917.092,VALID,0,VALID,91.3514,VALID,0,VALID,19.1778,VALID,26,VALID,0,
2013-08-07, 02:44:04,VALID,917.084,VALID,0,VALID,91.6945,VALID,0,VALID,19.1778,VALID,23,VALID,0,
2013-08-07, 02:45:04,VALID,917.1,VALID,0,VALID,91.6335,VALID,0,VALID,19.1583,VALID,23,VALID,0,
2013-08-07, 02:46:04,VALID,917.079,VALID,0,VALID,91.5572,VALID,0,VALID,19.0983,VALID,23,VALID,0,
2013-08-07, 02:47:04,VALID,917.086,VALID,0,VALID,91.6563,VALID,0,VALID,19.0998,VALID,14,VALID,0,
2013-08-07, 02:48:04,VALID,917.131,VALID,0,VALID,91.9841,VALID,0,VALID,19.0983,VALID,14,VALID,0,
2013-08-07, 02:49:04,VALID,917.108,VALID,0,VALID,92.1061,VALID,0,VALID,19.0983,VALID,15,VALID,0,
2013-08-07, 02:50:04,VALID,917.143,VALID,0,VALID,92.0146,VALID,0,VALID,19.1193,VALID,15,VALID,0,
2013-08-07, 02:51:04,VALID,917.137,VALID,0,VALID,92.0299,VALID,0,VALID,19.0803,VALID,14,VALID,0,
2013-08-07, 02:52:04,VALID,917.136,VALID,0,VALID,91.9536,VALID,0,VALID,19.0803,VALID,7,VALID,0,
2013-08-07, 02:53:04,VALID,917.068,VALID,0,VALID,91.7097,VALID,0,VALID,19.0983,VALID,13,VALID,0,
2013-08-07, 02:54:04,VALID,917.044,VALID,0,VALID,91.1456,VALID,0.107441,VALID,19.1568,VALID,19,VALID,0,
2013-08-07, 02:55:04,VALID,917.034,VALID,0,VALID,90.4823,VALID,0,VALID,19.1973,VALID,9,VALID,0,
2013-08-07, 02:56:04,VALID,917.057,VALID,0,VALID,90.2231,VALID,0,VALID,19.2363,VALID,18,VALID,0,
2013-08-07, 02:57:04,VALID,917.049,VALID,0,VALID,90.4595,VALID,0,VALID,19.2153,VALID,332,VALID,0,
2013-08-07, 02:58:04,VALID,917.036,VALID,0,VALID,90.5281,VALID,0,VALID,19.2558,VALID,351,VALID,0,
2013-08-07, 02:59:04,VALID,917.052,VALID,0,VALID,90.5814,VALID,0,VALID,19.2558,VALID,351,VALID,0,
2013-08-07, 03:00:04,VALID,917.015,VALID,0,VALID,90.5891,VALID,0,VALID,19.2363,VALID,351,VALID,0,
2013-08-07, 03:01:04,VALID,917.005,VALID,0,VALID,90.4137,VALID,0,VALID,19.1778,VALID,350,VALID,0,
2013-08-07, 03:02:04,VALID,917.019,VALID,0,VALID,91.0465,VALID,0,VALID,19.2168,VALID,15,VALID,0,
2013-08-07, 03:03:04,VALID,916.983,VALID,0,VALID,91.1227,VALID,0,VALID,19.1763,VALID,15,VALID,0,
2013-08-07, 03:04:04,VALID,916.964,VALID,0,VALID,91.1989,VALID,0,VALID,19.1778,VALID,14,VALID,0,
2013-08-07, 03:05:04,VALID,916.95,VALID,0,VALID,91.3285,VALID,0,VALID,19.1778,VALID,9,VALID,0,
2013-08-07, 03:06:04,VALID,916.97,VALID,0,VALID,91.5496,VALID,0,VALID,19.1568,VALID,11,VALID,0,
2013-08-07, 03:07:04,VALID,916.988,VALID,0,VALID,91.6487,VALID,0,VALID,19.1583,VALID,11,VALID,0,
2013-08-07, 03:08:04,VALID,916.957,VALID,0,VALID,91.8012,VALID,0,VALID,19.1193,VALID,11,VALID,0,
2013-08-07, 03:09:04,VALID,916.953,VALID,0,VALID,91.8545,VALID,0.107441,VALID,19.0593,VALID,11,VALID,0,
2013-08-07, 03:10:04,VALID,916.926,VALID,0,VALID,92.1214,VALID,0.107441,VALID,19.0203,VALID,12,VALID,0,
2013-08-07, 03:11:04,VALID,916.909,VALID,0,VALID,92.4263,VALID,0,VALID,19.0023,VALID,8,VALID,0,
2013-08-07, 03:12:04,VALID,916.882,VALID,0,VALID,92.4415,VALID,0,VALID,18.9814,VALID,8,VALID,0,
2013-08-07, 03:13:04,VALID,916.861,VALID,0,VALID,92.6245,VALID,0,VALID,18.9633,VALID,8,VALID,0,
2013-08-07, 03:14:04,VALID,916.864,VALID,0,VALID,92.6626,VALID,0,VALID,18.9619,VALID,8,VALID,0,
2013-08-07, 03:15:04,VALID,916.865,VALID,0,VALID,92.6702,VALID,0,VALID,18.9619,VALID,8,VALID,0,
2013-08-07, 03:16:04,VALID,916.871,VALID,0,VALID,92.6626,VALID,0,VALID,18.9814,VALID,330,VALID,0,
2013-08-07, 03:17:04,VALID,916.838,VALID,0,VALID,92.5254,VALID,0,VALID,19.0413,VALID,330,VALID,0,
2013-08-07, 03:18:04,VALID,916.802,VALID,0,VALID,92.4263,VALID,0,VALID,19.0398,VALID,346,VALID,0,
2013-08-07, 03:19:04,VALID,916.77,VALID,0,VALID,92.3196,VALID,0,VALID,19.0008,VALID,12,VALID,0,
2013-08-07, 03:20:04,VALID,916.749,VALID,0,VALID,92.5788,VALID,0,VALID,19.0023,VALID,325,VALID,0,
2013-08-07, 03:21:04,VALID,916.738,VALID,0,VALID,92.5559,VALID,0,VALID,18.9633,VALID,353,VALID,0,
2013-08-07, 03:22:04,VALID,916.725,VALID,0,VALID,92.411,VALID,0,VALID,18.9633,VALID,353,VALID,0,
2013-08-07, 03:23:04,VALID,916.727,VALID,0,VALID,92.3958,VALID,0.107441,VALID,18.9229,VALID,353,VALID,0,
2013-08-07, 03:24:04,VALID,916.692,VALID,0,VALID,92.655,VALID,0,VALID,18.9438,VALID,342,VALID,0,
2013-08-07, 03:25:04,VALID,916.73,VALID,0,VALID,92.7617,VALID,0,VALID,18.9438,VALID,342,VALID,0,
2013-08-07, 03:26:04,VALID,916.698,VALID,0,VALID,92.7922,VALID,0,VALID,18.9034,VALID,342,VALID,0,
2013-08-07, 03:27:04,VALID,916.714,VALID,0,VALID,92.9752,VALID,0,VALID,18.9034,VALID,342,VALID,0,
2013-08-07, 03:28:04,VALID,916.73,VALID,0,VALID,92.9752,VALID,0,VALID,18.8658,VALID,1,VALID,0,
2013-08-07, 03:29:04,VALID,916.775,VALID,0,VALID,92.9294,VALID,0.107441,VALID,18.8059,VALID,355,VALID,0,
2013-08-07, 03:30:04,VALID,916.775,VALID,0,VALID,92.8227,VALID,0,VALID,18.8254,VALID,9,VALID,0,
2013-08-07, 03:31:04,VALID,916.775,VALID,0,VALID,92.5864,VALID,0,VALID,18.8059,VALID,16,VALID,0,
2013-08-07, 03:32:04,VALID,916.814,VALID,0,VALID,92.2891,VALID,0,VALID,18.8268,VALID,16,VALID,0,
2013-08-07, 03:33:04,VALID,916.801,VALID,0,VALID,92.1519,VALID,0,VALID,18.8059,VALID,349,VALID,0,
2013-08-07, 03:34:04,VALID,916.792,VALID,0,VALID,92.19,VALID,0,VALID,18.8059,VALID,337,VALID,0,
2013-08-07, 03:35:04,VALID,916.777,VALID,0,VALID,92.1747,VALID,0,VALID,18.8463,VALID,3,VALID,0,
2013-08-07, 03:36:04,VALID,916.757,VALID,0,VALID,92.1061,VALID,0,VALID,18.8658,VALID,347,VALID,0,
2013-08-07, 03:37:04,VALID,916.743,VALID,0,VALID,91.946,VALID,0,VALID,18.9034,VALID,356,VALID,0,
2013-08-07, 03:38:04,VALID,916.724,VALID,0,VALID,91.7783,VALID,0,VALID,18.9424,VALID,349,VALID,0,
2013-08-07, 03:39:04,VALID,916.727,VALID,0,VALID,91.5115,VALID,0,VALID,19.0008,VALID,352,VALID,0,
2013-08-07, 03:40:04,VALID,916.69,VALID,0,VALID,91.3133,VALID,0,VALID,19.0413,VALID,351,VALID,0,
2013-08-07, 03:41:04,VALID,916.68,VALID,0,VALID,91.5115,VALID,0,VALID,19.0203,VALID,335,VALID,0,
2013-08-07, 03:42:04,VALID,916.679,VALID,0,VALID,91.9079,VALID,0,VALID,19.0398,VALID,318,VALID,0,
2013-08-07, 03:43:04,VALID,916.646,VALID,0,VALID,92.1442,VALID,0,VALID,19.0803,VALID,306,VALID,0,
2013-08-07, 03:44:04,VALID,916.691,VALID,0,VALID,92.1976,VALID,0,VALID,19.0218,VALID,306,VALID,0,
2013-08-07, 03:45:04,VALID,916.672,VALID,0,VALID,92.0985,VALID,0,VALID,19.0023,VALID,339,VALID,0,
2013-08-07, 03:46:04,VALID,916.635,VALID,0,VALID,92.533,VALID,0,VALID,19.0008,VALID,342,VALID,0,
2013-08-07, 03:47:04,VALID,916.623,VALID,0,VALID,92.7465,VALID,0,VALID,18.9424,VALID,342,VALID,0,
2013-08-07, 03:48:04,VALID,916.61,VALID,0,VALID,93.0057,VALID,0,VALID,18.9243,VALID,1,VALID,0,
2013-08-07, 03:49:04,VALID,916.632,VALID,0,VALID,93.0743,VALID,0.107441,VALID,18.8658,VALID,1,VALID,0,
2013-08-07, 03:50:04,VALID,916.625,VALID,0,VALID,93.2496,VALID,0,VALID,18.8059,VALID,1,VALID,0,
2013-08-07, 03:51:04,VALID,916.605,VALID,0,VALID,93.4021,VALID,0,VALID,18.7474,VALID,1,VALID,0,
2013-08-07, 03:52:04,VALID,916.591,VALID,0,VALID,93.5241,VALID,0,VALID,18.7084,VALID,360,VALID,0,
2013-08-07, 03:53:04,VALID,916.587,VALID,0,VALID,93.6079,VALID,0,VALID,18.6694,VALID,354,VALID,0,
2013-08-07, 03:54:04,VALID,916.586,VALID,0,VALID,93.8595,VALID,0,VALID,18.6499,VALID,337,VALID,0,
2013-08-07, 03:55:04,VALID,916.57,VALID,0,VALID,94.0272,VALID,0,VALID,18.6499,VALID,359,VALID,0,
2013-08-07, 03:56:04,VALID,916.588,VALID,0,VALID,94.0882,VALID,0,VALID,18.6499,VALID,8,VALID,0,
2013-08-07, 03:57:04,VALID,916.6,VALID,0,VALID,93.8671,VALID,0,VALID,18.6319,VALID,7,VALID,0,
2013-08-07, 03:58:04,VALID,916.627,VALID,0,VALID,93.5774,VALID,0,VALID,18.5929,VALID,15,VALID,0,
2013-08-07, 03:59:04,VALID,916.588,VALID,0,VALID,93.5469,VALID,0,VALID,18.5914,VALID,354,VALID,0,
2013-08-07, 04:00:04,VALID,916.604,VALID,0,VALID,93.5622,VALID,0,VALID,18.5914,VALID,360,VALID,0,